Location: Pointed Rock Observatory
(32.4532°N, 111.0636°W)
Time: 14:53:37
(UTC-07:00)

ISS - Visible Passes

Search period start: 16 November 2018 00:00
Search period end: 26 November 2018 00:00
Orbit: 401 x 408 km, 51.6° (Epoch: 16 November)

Date Brightness Start Highest point End Pass type
(mag) Time Alt. Az. Time Alt. Az. Time Alt. Az.
16 Nov -4.0 05:22:15 85° WSW 05:22:17 86° SW 05:25:33 10° SE visible
17 Nov -0.5 04:32:49 13° ESE 04:32:49 13° ESE 04:33:17 10° ESE visible
17 Nov -1.6 06:05:32 12° WSW 06:06:20 12° SW 06:07:47 10° SSW visible
18 Nov -1.6 05:16:10 17° S 05:16:10 17° S 05:17:11 10° S visible
19 Nov -0.9 19:19:34 10° SSW 19:19:47 11° SSW 19:19:47 11° SSW visible
20 Nov -1.8 18:28:31 10° SSE 18:30:21 15° SE 18:30:21 15° SE visible
21 Nov -2.5 19:11:21 10° SW 19:13:32 39° WSW 19:13:32 39° WSW visible
22 Nov -3.4 18:19:21 10° SSW 18:22:28 46° SE 18:23:55 26° ENE visible
23 Nov -2.1 19:03:57 10° W 19:06:45 26° NW 19:06:52 26° NNW visible
24 Nov -3.3 18:11:18 10° WSW 18:14:28 54° NW 18:17:03 14° NNE visible
25 Nov -1.2 18:57:33 10° WNW 18:59:02 12° NNW 18:59:49 12° NNW visible
